Theta_e
331 332 334 338 339 340 341 343 344 344 346 346 346 347 348 348 348 349 349 348 348 349 349 348 349 349 349 350 349 349 350 350 350 350 350 349 350 350 350 350 350 351 350 350 349 349 350 349 350 349 349 348 347 347 347 347 347 347 347 348 348 349 349 349 349 349 349 349 348 348 348 349 348 349 354 355 354 354 355 354 354 352 352 351 355
329 331 332 334 338 338 340 341 342 342 343 345 345 346 346 347 347 347 346 346 347 347 347 347 347 348 348 347 349 347 349 349 349 348 348 349 349 349 349 349 349 350 350 350 350 349 349 349 349 348 348 349 348 347 348 348 348 348 348 348 348 348 349 349 349 350 350 349 349 348 348 348 348 349 353 356 355 355 355 354 354 352 349 354 353
330 331 331 333 336 336 337 338 340 341 342 342 343 344 345 345 345 346 346 346 346 346 346 346 346 347 347 347 348 348 348 348 348 348 348 348 348 348 348 348 348 348 349 350 350 349 348 348 348 348 348 348 348 348 348 348 347 348 348 349 348 348 348 349 349 349 349 349 349 348 346 346 346 349 352 356 356 355 355 353 353 353 349 355 355
328 329 330 332 334 336 335 336 337 338 339 340 341 342 343 343 343 344 345 345 346 346 346 346 346 347 347 346 346 347 347 346 347 346 346 347 347 347 347 347 348 347 347 348 348 348 348 348 349 348 347 347 347 348 348 348 347 347 348 348 348 348 348 348 349 349 349 348 348 346 344 341 338 344 355 356 354 354 354 353 352 354 355 354 355
327 329 330 329 329 333 334 334 335 337 337 339 340 341 340 341 341 343 343 343 344 344 345 345 345 345 346 345 345 345 344 344 344 345 346 346 346 346 347 346 347 347 347 347 347 347 347 347 348 348 347 347 346 347 347 347 347 347 347 348 349 348 348 348 349 349 348 347 346 345 343 341 334 355 356 355 354 354 353 353 353 355 355 355 355
325 327 328 328 328 330 334 334 334 336 336 337 338 338 338 339 340 341 341 342 342 342 343 343 343 343 343 343 343 342 342 342 342 342 342 343 345 344 343 344 344 345 346 347 348 348 347 346 348 347 346 347 346 346 346 347 347 347 347 348 348 348 348 348 348 348 347 345 344 342 344 344 339 353 355 354 354 353 354 355 354 353 353 354 354
325 325 327 326 327 329 333 333 334 334 335 336 335 336 337 338 338 339 339 339 339 339 340 340 340 340 341 340 339 339 339 339 339 339 340 340 341 340 340 340 341 342 344 346 347 347 347 347 347 346 347 346 346 346 346 346 346 346 347 348 348 348 348 347 347 347 345 343 341 341 341 338 338 342 353 352 353 353 353 353 353 352 353 352 353
322 324 325 325 325 330 332 332 333 334 335 335 335 336 336 337 336 336 336 336 337 337 338 338 338 338 337 337 337 336 336 337 337 337 338 338 338 337 337 337 338 339 341 343 345 345 344 344 344 344 344 342 342 344 345 346 346 346 346 347 347 347 347 346 346 345 343 343 342 342 340 340 341 342 347 345 353 353 352 350 348 348 351 351 352
319 322 323 323 324 329 330 331 332 333 333 333 333 333 334 334 334 333 333 333 334 334 335 335 335 335 334 334 334 334 334 334 334 334 335 334 334 334 335 334 335 336 337 340 342 342 342 341 340 340 340 338 337 338 340 342 343 345 345 345 345 345 344 343 342 341 342 341 340 339 341 342 341 341 347 347 346 347 349 350 349 350 350 350 350
318 321 321 321 323 327 328 330 331 331 331 330 330 331 332 332 331 331 331 331 331 331 331 331 331 332 332 331 331 331 331 332 332 332 332 332 332 332 332 332 332 332 334 335 338 338 339 339 338 337 337 335 333 333 334 336 338 340 341 341 341 341 338 337 337 339 341 339 339 339 340 346 341 342 348 351 350 349 350 345 346 347 348 350 349
317 318 319 319 321 326 327 328 329 329 329 328 328 329 330 330 329 329 328 329 329 329 330 329 329 329 329 329 328 328 328 329 329 329 329 329 329 329 329 329 328 329 329 331 332 334 334 334 334 333 332 332 330 330 329 331 332 333 334 334 334 333 331 329 332 337 339 339 338 338 340 345 339 340 351 349 350 350 350 346 346 349 350 351 352
314 316 316 317 322 324 326 327 327 328 328 328 328 327 328 328 328 327 326 327 326 326 327 327 326 326 326 326 325 324 325 325 326 326 326 326 325 325 325 325 325 325 326 326 327 328 329 329 329 329 328 327 326 326 326 325 327 328 328 328 328 327 325 325 329 334 337 337 337 337 338 339 341 343 350 350 350 349 350 349 350 350 350 350 350
313 314 315 315 316 322 324 325 325 326 326 327 326 326 326 326 326 325 325 324 324 324 324 324 324 325 325 324 323 323 322 323 323 323 324 324 323 323 323 323 323 323 323 324 324 325 325 325 325 325 325 324 324 324 323 323 323 324 325 325 324 323 323 321 320 325 332 336 337 337 338 338 338 346 347 349 348 348 348 348 349 350 350 350 350
309 311 313 312 313 318 321 322 323 324 324 324 324 324 324 324 324 324 323 323 323 323 323 323 323 323 323 322 322 322 322 321 321 322 323 323 322 322 323 323 322 322 323 323 323 324 325 324 324 324 323 323 322 322 321 322 321 322 322 322 322 321 321 317 317 321 327 331 334 336 337 337 337 344 347 346 346 347 348 348 348 349 350 350 350
307 309 309 310 310 311 317 319 320 321 322 323 323 323 323 323 323 323 322 322 321 320 320 320 321 321 321 321 320 320 320 320 321 321 320 321 322 321 321 321 321 321 321 321 321 322 322 322 322 322 322 321 320 320 320 320 320 321 321 320 321 320 319 314 314 316 321 327 330 334 335 337 341 347 347 345 346 346 346 345 345 346 348 349 349
308 307 307 307 307 309 309 315 316 317 318 319 319 320 320 320 320 320 321 321 320 319 318 318 318 318 318 318 318 318 318 318 318 318 318 318 319 319 319 319 319 319 319 320 320 319 320 320 320 320 319 320 320 320 319 320 320 320 319 320 319 319 318 317 311 310 316 321 327 331 333 335 340 343 344 345 346 346 346 345 345 345 345 347 348
307 306 304 305 307 305 307 308 311 314 314 315 316 316 317 317 317 317 317 317 317 317 317 316 316 315 315 315 315 315 315 316 315 314 314 315 316 317 317 316 316 316 317 318 318 317 318 318 318 317 318 318 319 319 319 319 319 318 317 317 317 316 317 315 310 308 310 318 326 331 332 334 337 341 343 344 344 345 345 345 345 345 345 346 346
306 305 304 304 303 303 304 305 307 306 307 310 313 314 315 315 314 314 314 314 314 314 314 313 312 312 312 311 311 311 312 312 313 312 312 312 312 314 315 315 315 316 317 317 316 316 316 317 317 316 317 317 318 318 318 318 318 317 316 315 315 315 315 315 307 306 309 321 328 331 332 334 340 341 342 343 344 344 344 344 343 343 343 344 344
303 302 302 302 302 302 302 304 306 305 305 304 304 308 312 312 313 312 312 311 311 310 311 310 309 309 309 309 309 309 308 309 309 309 309 308 308 309 312 313 313 314 314 315 315 315 315 316 316 316 316 316 316 316 316 317 314 314 314 315 316 314 313 311 307 307 318 318 321 323 326 334 339 340 341 342 343 343 343 342 342 342 343 344 344
301 301 300 301 301 302 302 303 303 304 304 302 302 302 308 309 310 310 310 310 309 308 307 306 307 306 306 307 309 309 308 307 307 306 307 307 306 306 309 311 311 311 312 313 313 313 313 314 314 314 315 315 314 314 315 312 312 312 312 315 315 313 307 307 308 308 309 310 313 314 323 330 334 337 339 340 342 342 342 342 342 342 341 341 342
303 300 299 300 301 301 301 302 302 303 304 303 301 301 303 306 306 307 307 307 307 307 307 307 308 307 307 307 307 303 302 301 301 302 309 305 307 306 308 309 310 309 311 311 311 311 313 312 312 312 313 311 310 312 313 311 311 311 314 313 311 306 307 305 306 307 306 307 309 309 321 329 326 329 333 335 337 338 338 338 339 339 339 340 341
298 298 300 301 300 301 301 301 302 303 303 305 304 303 303 305 301 302 302 304 305 307 303 303 308 303 307 303 301 301 300 298 299 305 301 305 305 308 307 307 309 307 308 309 309 310 311 311 311 311 310 308 309 304 304 308 311 313 312 310 304 302 303 304 305 305 307 306 310 312 321 320 322 323 325 326 328 333 334 335 337 339 340 339 339
297 298 298 300 300 300 301 301 301 302 302 303 304 303 301 301 301 299 301 305 304 303 302 302 302 302 302 301 300 300 301 299 300 303 303 307 304 308 307 305 306 305 306 306 306 308 307 308 308 308 308 308 301 300 300 300 301 306 306 303 301 302 303 303 304 304 305 306 307 315 319 318 319 320 322 323 325 328 329 331 332 333 335 337 339
298 298 297 300 300 300 300 300 301 301 301 301 303 301 300 300 300 301 300 300 301 302 301 301 301 301 302 299 299 301 301 299 307 307 305 300 301 305 306 306 305 306 304 304 305 306 305 306 306 306 307 302 300 300 300 299 300 301 301 300 301 302 303 303 302 303 303 306 307 315 318 317 316 317 319 320 321 321 322 324 325 327 328 331 334
298 298 299 299 299 300 300 300 301 301 300 300 301 299 300 299 300 300 300 299 300 300 300 300 300 301 300 299 300 300 300 299 299 298 298 299 297 296 297 297 297 297 303 296 296 298 298 297 297 299 297 298 298 299 300 300 301 301 301 300 301 301 302 302 302 302 303 303 305 313 316 313 314 316 317 319 319 320 321 322 322 323 325 326 328
298 297 298 298 298 299 299 300 301 300 300 299 300 300 301 299 299 299 299 300 302 300 300 300 300 300 299 300 299 299 298 298 298 297 297 297 296 295 296 296 295 295 296 295 295 295 295 295 295 296 295 296 296 297 298 300 300 299 299 300 301 301 301 301 301 301 302 302 304 311 314 314 313 315 317 318 318 319 320 321 322 323 324 324 326
298 297 298 298 299 299 299 300 299 300 300 299 300 298 298 299 299 299 299 299 299 299 298 297 298 299 300 298 299 297 296 296 296 296 296 296 296 295 295 295 295 294 295 294 295 294 294 294 294 295 295 295 296 296 296 297 297 298 299 299 300 300 300 301 300 300 301 301 305 310 312 314 312 314 315 316 317 319 319 320 322 323 324 325 325
297 297 297 297 299 298 300 299 299 299 299 299 298 296 298 300 300 300 300 300 299 298 297 297 299 297 298 297 299 296 295 295 295 295 295 295 296 295 295 294 294 293 294 294 294 292 292 293 294 294 294 294 294 295 295 296 296 296 297 297 298 299 299 299 300 301 301 301 302 306 310 312 310 311 313 315 317 318 319 320 322 323 324 325 325
297 298 297 297 298 299 299 299 299 299 299 299 296 296 298 299 296 297 297 300 298 298 297 298 297 296 297 297 297 296 295 295 294 294 295 295 295 294 294 293 294 293 294 292 293 292 292 292 293 293 293 293 293 294 294 294 295 295 296 296 297 298 298 298 298 299 299 299 300 302 308 310 310 310 312 314 316 317 318 319 320 322 323 324 324
298 298 298 296 297 298 298 298 298 299 299 298 296 297 297 297 296 297 296 298 297 298 297 296 296 295 295 296 296 296 295 294 294 294 294 294 294 293 293 293 293 293 292 292 292 291 291 292 292 293 293 293 293 294 294 293 294 295 295 296 296 296 296 297 297 298 298 299 299 300 306 309 310 310 311 312 314 316 317 318 319 320 321 322 323
298 298 298 296 297 297 298 297 298 299 297 296 296 296 297 296 297 297 294 296 297 297 297 296 295 295 296 296 296 295 296 294 294 293 293 294 293 292 293 292 292 292 292 292 292 292 292 292 292 292 293 292 292 293 293 293 293 294 295 295 295 295 295 296 296 297 297 298 298 299 301 306 309 310 309 310 312 313 315 316 317 318 319 320 321
298 298 298 297 297 297 297 297 298 298 297 296 297 296 296 297 297 296 295 297 297 295 295 296 295 295 296 296 295 294 295 294 294 294 293 293 292 292 293 292 292 291 292 291 292 292 292 292 292 293 293 293 292 292 293 292 292 292 293 293 294 294 294 294 295 295 296 297 297 298 298 300 305 308 309 309 310 311 313 314 315 315 316 318 319
298 299 298 297 296 296 296 296 297 298 296 296 296 296 296 297 296 296 297 298 296 296 295 295 294 295 295 294 294 294 293 294 293 293 293 292 292 292 292 292 291 292 291 292 292 291 290 290 291 292 291 292 291 291 293 292 291 291 292 292 293 293 293 293 293 293 294 295 296 296 297 298 299 304 307 309 308 309 310 312 313 314 315 316 317
298 298 297 297 297 297 297 297 296 297 296 296 296 295 296 296 296 295 297 296 294 294 295 295 295 294 294 294 294 293 293 293 292 293 292 291 291 291 291 291 291 291 291 291 290 290 290 290 290 290 292 291 290 290 290 290 290 291 291 292 292 292 292 292 292 293 293 294 295 295 296 297 297 298 300 306 308 309 308 309 310 311 312 314 315
298 298 297 297 297 296 297 296 297 296 296 296 296 295 295 295 295 295 295 294 294 294 293 294 293 294 294 293 293 293 292 293 292 291 292 291 291 291 291 290 291 291 290 290 290 289 289 289 290 289 289 289 289 290 290 289 290 290 291 291 291 291 292 292 292 293 293 294 294 295 295 296 296 298 300 298 301 304 307 308 309 310 311 312 313
298 298 297 297 296 296 296 295 296 295 295 296 295 295 295 294 294 296 294 294 293 294 293 293 293 292 293 292 293 292 293 292 292 292 291 290 290 290 290 291 290 289 290 290 290 289 289 290 289 289 288 288 289 288 289 288 289 289 289 290 290 291 291 291 292 292 293 293 293 294 295 295 296 296 300 298 298 300 305 308 308 308 309 309 310
299 298 297 296 295 295 296 295 295 295 294 295 295 294 294 294 294 294 294 294 293 292 292 293 293 292 292 292 292 292 292 292 291 291 290 290 290 289 290 290 290 289 289 289 288 290 288 290 289 290 289 287 288 287 288 287 288 289 289 289 290 290 290 290 291 292 294 293 293 293 294 295 297 300 297 297 298 298 302 306 308 308 308 308 309
298 298 297 296 295 295 294 294 295 294 294 294 294 294 294 293 293 293 295 293 293 293 292 292 292 291 291 291 292 291 292 291 290 291 290 289 289 289 289 289 289 289 288 288 288 288 288 288 288 288 289 288 287 287 287 287 288 289 289 289 289 289 289 290 291 293 292 292 292 293 294 295 296 296 297 297 297 297 298 301 306 307 306 308 309
298 297 297 296 295 294 295 295 294 294 294 294 294 293 293 293 292 292 292 292 293 292 291 291 291 291 290 292 291 291 292 291 290 290 289 288 288 288 288 289 289 288 288 287 287 288 288 288 287 287 288 288 287 287 287 287 288 288 288 288 288 289 289 290 291 291 292 292 293 295 296 296 296 296 297 297 297 297 298 298 298 298 299 305 308
297 296 296 295 295 294 294 294 294 294 294 294 293 292 291 291 290 290 290 291 291 291 291 290 291 290 292 291 290 290 291 290 290 289 288 288 288 287 288 288 289 288 288 287 286 286 287 286 286 286 286 287 288 287 287 287 287 286 287 288 288 289 289 289 289 290 291 292 293 294 294 295 295 296 297 297 297 297 297 297 297 297 299 302 306
295 295 295 294 294 294 293 292 294 293 293 292 292 291 290 289 289 290 289 290 290 290 290 290 290 290 291 291 291 290 290 290 289 289 288 289 287 287 287 288 288 287 287 287 287 287 287 287 286 286 286 286 286 286 286 286 285 285 286 285 285 287 288 289 288 289 290 291 292 292 293 294 295 295 296 296 296 295 294 294 296 297 297 297 299
293 294 294 294 294 293 293 293 293 293 293 292 292 291 291 290 290 289 289 290 289 289 288 289 290 291 290 290 290 289 290 289 289 288 288 287 286 286 287 287 287 287 287 287 287 289 287 286 287 285 286 285 284 286 286 285 284 282 282 282 283 285 287 288 288 289 289 291 292 292 292 292 291 290 290 290 291 292 293 295 296 295 296 297 298
293 294 293 293 293 293 293 292 292 292 292 292 292 291 291 291 291 290 290 289 289 290 289 289 290 290 290 290 290 289 290 289 288 288 288 287 286 286 285 286 286 287 286 285 286 285 286 285 285 284 284 285 285 286 286 286 283 283 283 281 279 279 283 285 287 287 287 287 287 287 288 288 288 289 290 290 291 293 293 293 293 293 295 296 296
290 289 290 292 292 293 293 292 292 292 292 292 292 291 291 291 291 291 291 290 288 290 289 289 289 289 288 290 289 289 289 288 288 288 288 287 286 286 285 285 286 286 286 285 285 284 285 285 285 285 285 282 282 283 286 285 284 283 279 279 279 280 277 281 281 284 286 286 286 286 287 289 289 289 290 289 289 290 291 291 293 294 294 294 293
289 290 290 291 293 292 293 292 292 291 291 292 292 291 291 290 289 289 289 288 288 287 287 286 287 288 288 288 288 288 289 288 288 287 287 286 286 286 285 285 285 286 285 285 284 284 284 284 285 284 283 282 282 282 284 285 284 285 282 280 277 277 277 279 282 282 284 284 285 286 286 286 286 287 287 288 290 291 291 292 293 293 293 293 293
289 290 290 291 291 292 292 292 291 291 291 291 291 292 291 289 288 287 285 285 285 285 285 285 286 287 287 288 288 288 288 287 287 287 286 286 285 285 285 284 285 285 286 285 284 284 284 284 284 284 284 284 283 282 281 283 285 285 285 284 282 277 278 280 279 277 283 285 284 284 285 285 286 287 288 288 289 290 290 291 292 292 292 292 293
289 289 289 289 289 291 291 291 291 290 291 291 291 291 290 289 288 288 287 286 285 285 286 287 287 287 288 287 288 288 288 287 286 286 286 285 285 285 284 284 284 284 285 284 283 283 283 283 285 284 284 285 283 281 281 281 282 283 285 285 285 285 284 281 278 280 278 281 282 282 283 285 285 286 287 288 289 289 290 290 290 290 290 291 292
289 288 288 288 288 289 289 291 290 290 290 291 291 291 290 289 288 287 287 286 286 286 287 287 288 288 287 287 287 286 287 287 286 286 286 285 285 284 284 284 284 284 284 283 283 283 284 284 284 284 283 283 282 281 281 281 280 280 283 282 282 283 283 283 283 280 279 277 279 282 284 284 284 285 286 286 286 287 287 288 288 289 288 289 290
287 288 288 288 288 288 288 289 288 289 290 290 291 290 290 289 288 287 286 287 286 287 287 288 287 287 286 285 285 286 286 286 286 286 285 285 285 284 284 283 283 283 283 284 283 283 283 282 282 282 282 282 282 282 281 280 281 280 280 279 280 280 280 281 281 281 278 277 277 279 280 283 284 284 284 285 286 286 287 287 287 287 288 288 288
287 288 286 287 287 287 288 288 287 288 289 289 290 289 288 288 287 287 286 287 287 287 286 286 285 285 285 285 285 285 285 285 285 285 284 285 284 284 283 283 282 283 283 282 282 282 282 282 282 282 282 282 282 282 281 281 281 281 281 280 279 278 278 278 278 278 279 279 277 278 279 278 278 280 282 283 284 285 285 286 286 286 287 287 288
286 286 287 287 287 288 287 287 287 287 288 288 288 287 287 287 287 286 286 287 287 286 285 284 284 284 284 284 284 284 284 284 284 284 284 284 283 284 283 282 282 283 282 282 281 281 281 282 282 282 281 281 281 281 282 282 281 280 280 280 279 279 278 277 277 278 278 276 277 277 278 279 279 278 281 282 283 284 284 285 285 285 286 286 287
Wind_Speed
3 8 6 8 9 9 10 11 11 11 12 12 13 13 14 13 13 12 11 10 10 10 10 10 10 11 11 11 11 11 11 10 10 10 11 11 11 10 10 10 10 9 8 7 7 7 6 6 6 6 7 8 7 9 10 9 8 8 8 9 9 9 9 9 9 8 8 8 8 9 11 12 13 9 5 4 3 4 1 3 4 2 2 3 6
4 7 6 6 11 10 10 10 10 10 11 11 12 13 13 14 14 14 14 13 14 13 12 12 12 13 12 12 13 12 14 13 12 13 12 13 13 12 11 10 10 10 8 8 7 8 7 7 7 6 6 7 7 8 9 10 11 9 8 8 9 10 10 10 9 7 8 8 7 8 9 11 12 12 6 4 3 3 1 1 3 2 2 5 5
5 8 6 7 10 10 9 9 9 10 10 10 10 12 13 12 12 13 12 11 12 12 13 11 12 14 12 13 14 14 14 14 14 13 13 14 14 14 13 12 11 10 9 8 8 7 7 7 7 6 6 6 6 7 8 10 10 11 10 9 9 10 11 11 10 9 8 8 10 10 10 10 11 11 7 4 2 1 1 1 1 3 2 5 6
5 9 7 9 11 9 9 9 8 9 10 9 10 11 12 11 11 11 11 12 12 13 12 12 13 13 13 13 14 14 14 14 14 14 14 15 14 14 14 13 12 12 11 10 9 9 8 8 8 8 6 6 6 8 9 9 9 10 11 11 11 11 11 11 11 11 11 10 10 11 5 5 7 8 3 2 4 4 3 1 1 3 5 5 6
4 8 9 8 6 6 9 9 8 8 9 9 10 11 10 10 9 10 11 11 11 11 12 12 12 12 14 14 14 14 14 14 14 14 15 15 14 14 14 14 13 14 13 11 11 10 10 9 9 9 8 8 7 8 9 9 9 9 10 10 11 12 12 12 11 11 12 11 12 9 5 4 5 1 3 5 4 5 3 2 0 3 5 6 6
4 4 8 8 6 4 9 9 9 8 8 9 9 10 9 8 10 10 11 10 11 10 11 11 12 13 13 13 13 13 14 13 13 13 13 14 14 14 14 14 14 13 14 13 13 11 12 10 11 10 10 11 11 10 10 10 10 10 10 9 9 10 11 12 12 11 10 12 11 6 6 4 1 3 6 4 4 3 3 2 2 4 5 7 8
3 5 8 8 4 5 8 9 9 9 9 9 9 9 10 10 9 10 11 10 10 10 10 11 11 12 12 12 13 13 13 13 13 13 12 12 13 13 13 13 13 13 13 14 14 14 15 16 15 14 14 15 15 14 12 11 10 11 10 10 10 9 10 10 11 11 11 9 5 6 6 3 3 2 1 3 3 3 3 4 5 6 6 6 6
3 6 8 6 4 6 10 10 10 10 10 11 10 11 11 11 11 11 12 11 11 11 11 11 12 12 12 12 12 13 13 13 13 13 13 13 13 13 13 13 13 13 13 13 15 15 14 15 15 16 16 15 15 16 15 14 13 12 11 12 12 11 11 10 10 11 13 6 5 5 5 4 4 3 6 8 4 3 3 5 7 7 7 7 5
4 8 9 6 5 9 10 11 11 11 11 10 10 10 10 10 11 11 11 11 11 11 11 11 11 11 12 12 12 13 13 13 13 13 13 13 13 13 13 13 13 13 13 13 14 15 15 14 14 14 14 14 14 14 14 14 14 14 15 15 16 16 16 15 14 12 7 4 5 5 4 4 4 3 4 7 9 3 5 5 5 8 9 9 7
4 8 7 6 5 9 10 10 11 11 11 11 10 10 10 10 10 10 10 11 10 10 10 10 11 11 11 12 12 12 13 13 13 13 13 13 13 13 13 13 13 13 14 13 14 14 14 14 14 14 14 14 14 13 13 13 13 14 14 13 14 14 14 15 15 9 6 5 5 6 5 7 4 4 4 7 7 5 5 4 4 4 6 8 7
7 8 7 6 5 9 10 11 11 12 12 11 11 11 10 10 10 10 10 10 11 11 11 11 11 11 11 12 12 12 13 13 13 13 13 12 13 13 13 13 13 13 13 13 13 13 13 13 13 13 13 13 13 12 12 12 12 12 13 13 13 13 13 14 11 6 6 7 6 5 5 7 4 2 1 6 2 3 3 3 3 4 7 9 10
6 8 7 5 6 9 10 11 11 12 12 12 11 11 11 11 11 10 10 11 11 11 11 11 11 11 11 12 12 12 12 13 13 13 13 13 12 13 12 13 12 12 13 13 13 13 13 13 13 12 12 12 12 12 11 11 11 10 10 11 11 11 12 12 6 6 6 7 6 5 5 4 4 5 8 7 7 6 4 5 6 8 9 9 10
6 8 7 5 5 7 10 11 11 12 12 12 12 11 11 11 11 11 11 11 11 11 11 11 11 11 11 12 12 12 12 12 12 13 13 13 13 13 13 13 13 13 13 13 13 13 13 13 13 13 13 13 12 12 12 11 11 10 9 9 9 10 10 10 5 6 6 7 6 6 4 4 4 5 4 6 6 7 7 7 8 9 10 10 10
6 7 7 6 4 7 9 10 11 12 12 12 11 11 11 11 11 11 11 12 11 11 11 11 11 11 11 12 12 12 12 12 12 13 13 13 13 13 13 13 13 13 13 13 13 13 13 13 13 13 13 13 13 13 13 13 12 11 10 9 9 9 9 6 6 5 5 6 6 7 6 5 4 6 3 6 8 7 7 7 8 9 10 10 10
6 6 7 6 5 4 9 11 12 12 12 12 11 11 11 12 11 11 11 12 12 12 12 12 11 12 12 12 12 12 13 13 13 13 13 13 14 14 14 13 13 13 13 13 13 13 13 13 13 13 12 12 12 12 12 12 12 12 12 11 10 9 8 4 4 4 5 5 6 6 6 5 6 6 6 7 7 6 6 7 8 9 9 10 10
6 6 7 7 6 4 4 9 12 12 12 12 11 11 11 11 11 11 11 12 12 12 12 12 12 12 12 12 12 13 13 13 13 14 13 14 14 14 13 14 13 14 14 13 13 13 13 13 13 12 12 12 13 13 13 12 11 11 12 13 13 12 10 5 4 5 5 5 6 5 5 5 10 10 7 8 8 7 8 9 9 9 10 10 10
6 6 6 7 7 6 6 5 8 13 11 11 11 11 11 11 11 11 11 11 12 12 12 12 12 12 12 13 13 13 13 13 14 15 15 14 14 15 14 14 14 14 13 13 13 13 14 14 14 14 14 14 13 13 12 12 11 11 12 13 13 14 13 10 5 5 6 6 5 5 5 5 7 11 10 9 9 9 10 11 12 11 11 12 12
4 5 5 5 6 6 7 7 7 6 6 8 9 10 10 11 11 11 11 11 11 12 12 12 12 11 11 11 12 13 12 13 14 15 16 16 15 15 15 15 16 16 15 14 14 14 14 14 14 14 15 16 16 15 14 12 12 12 12 13 14 15 13 13 6 6 7 6 4 3 3 4 6 6 7 8 9 10 11 12 14 14 13 13 13
4 5 6 5 4 6 7 6 5 6 7 6 4 5 10 10 11 10 11 11 12 12 12 10 10 9 7 8 8 10 10 9 10 10 11 13 11 11 11 11 12 13 13 13 13 14 15 15 15 15 15 15 15 15 15 13 14 15 14 12 13 13 14 8 5 6 4 5 6 6 6 10 11 11 10 10 11 12 13 13 14 15 14 14 14
4 4 5 5 5 5 5 5 4 4 5 7 5 4 6 10 10 10 11 11 11 11 10 10 8 5 4 5 8 7 8 5 7 5 7 7 8 5 7 8 9 11 11 10 10 12 13 12 13 14 14 14 15 15 14 13 15 14 14 13 13 13 7 5 5 7 8 8 8 7 8 12 11 11 12 12 12 12 13 15 15 15 16 17 16
3 4 4 5 5 5 6 5 4 5 6 7 6 5 5 9 7 9 10 10 10 8 8 8 7 4 3 6 4 3 5 4 3 1 4 3 4 3 7 8 10 11 12 10 10 13 12 11 12 14 13 13 13 12 11 14 14 15 13 13 13 7 5 7 8 6 6 6 6 6 10 10 12 13 12 13 14 14 15 15 16 16 17 18 18
6 5 4 5 5 5 5 6 6 5 5 6 5 4 4 7 6 5 4 5 5 7 4 3 5 2 2 2 3 3 4 4 2 1 1 1 2 2 5 9 10 12 12 11 12 13 12 12 12 14 13 14 13 7 6 8 11 11 11 13 8 7 7 7 6 7 6 6 6 7 13 16 16 16 16 16 15 15 15 16 16 15 16 18 18
7 6 6 7 6 6 5 6 6 6 6 4 5 5 5 4 4 4 3 5 4 4 4 4 3 1 2 3 4 2 1 3 1 1 1 1 1 4 7 12 11 13 13 13 14 14 14 13 13 13 13 11 6 6 6 6 7 9 9 7 6 7 7 7 7 7 6 6 6 10 13 15 15 15 15 15 15 15 15 16 17 17 17 17 18
9 8 8 6 7 7 6 6 7 6 6 6 5 6 5 6 6 5 5 5 4 4 4 4 3 1 2 4 3 1 1 4 2 4 4 4 4 6 8 9 9 10 13 7 10 11 14 12 13 13 7 5 5 6 6 6 6 5 5 6 6 6 6 6 6 7 7 6 6 10 12 15 15 16 16 17 17 17 18 18 19 19 19 18 17
8 8 7 8 8 8 7 7 7 7 6 7 6 7 6 6 5 5 5 5 5 5 5 4 2 1 2 4 1 0 2 4 3 3 3 5 4 4 4 5 5 5 7 5 6 5 6 6 6 7 7 7 7 7 6 6 6 6 6 6 6 5 6 6 7 7 7 7 6 12 13 16 17 17 16 16 17 17 18 18 19 20 20 20 19
8 9 10 9 9 9 8 8 8 7 6 7 6 6 7 6 6 4 5 5 4 4 5 6 4 1 2 0 2 1 3 4 3 3 3 5 4 5 4 4 4 4 4 5 6 6 6 6 6 6 6 6 6 7 7 6 6 7 6 6 6 5 6 6 6 6 6 7 8 13 13 15 17 17 16 16 16 17 17 18 18 19 20 20 20
9 10 9 9 9 8 8 9 8 7 6 7 5 6 6 6 7 6 5 6 5 4 4 6 4 1 0 1 3 3 4 4 3 3 4 4 5 3 4 4 4 4 6 6 6 6 6 7 7 6 7 7 6 6 6 6 7 7 6 5 5 6 6 6 6 6 6 6 6 12 14 14 17 18 18 18 18 18 18 18 19 19 19 20 21
8 9 9 9 10 11 10 10 8 8 7 6 6 7 5 6 5 4 5 6 6 4 5 6 5 3 3 2 2 5 4 5 3 3 3 3 4 4 3 5 4 5 6 6 6 6 6 6 6 5 6 6 7 7 6 6 7 6 7 7 7 6 6 6 6 6 6 6 5 8 11 13 16 18 19 19 19 19 19 19 19 20 20 20 20
10 10 9 10 11 11 11 11 9 9 7 6 7 7 6 6 6 5 3 5 4 5 6 5 5 5 3 2 3 4 4 5 3 3 3 3 3 3 4 4 4 5 5 6 5 6 6 6 6 6 6 6 6 6 6 6 5 6 6 7 7 7 7 7 7 6 6 6 6 7 11 12 16 17 18 19 20 20 20 20 19 20 20 20 20
12 10 10 9 10 11 12 12 11 10 8 7 6 7 6 6 6 5 6 4 4 6 5 5 6 6 4 3 3 4 5 4 3 2 3 2 3 4 4 4 4 4 6 5 5 5 5 5 5 5 5 5 6 7 6 6 6 6 6 7 7 7 7 7 7 7 7 6 7 7 11 12 13 17 17 18 19 19 20 20 20 20 20 21 21
10 12 11 9 10 11 11 11 10 9 8 8 6 7 7 6 6 6 7 5 5 6 4 5 5 6 5 3 3 2 5 4 3 3 3 2 4 3 2 3 3 4 5 4 3 3 4 4 5 5 5 6 6 6 6 6 6 6 6 6 7 7 7 7 7 8 8 8 7 6 8 12 12 13 16 17 18 18 19 19 20 20 20 20 21
12 13 10 8 11 12 11 11 11 10 10 8 6 7 7 7 6 7 7 6 6 6 5 6 6 6 4 3 4 3 4 5 3 2 0 1 4 1 1 2 2 5 4 3 3 3 3 4 4 4 5 5 6 6 6 6 6 6 6 7 7 7 7 7 7 7 7 8 7 7 7 7 10 12 13 15 17 17 17 18 18 19 20 20 20
8 11 11 10 13 12 12 11 11 9 10 9 8 7 7 7 7 7 6 6 6 6 6 6 6 5 4 4 4 3 3 5 5 3 1 2 3 1 2 1 3 5 3 2 3 3 4 4 4 3 5 5 6 6 5 6 6 7 7 7 7 7 7 7 7 7 8 8 8 7 7 7 6 8 10 10 13 15 16 17 17 18 19 19 20
9 9 11 13 11 8 9 9 10 11 10 9 8 8 7 7 7 7 6 6 5 5 6 6 7 6 5 4 3 2 4 4 3 3 0 2 2 2 3 2 5 3 1 2 3 3 3 3 3 4 5 5 6 6 6 6 6 6 7 7 7 7 7 8 7 8 8 8 8 7 7 7 7 6 5 7 9 10 14 17 18 18 18 19 20
9 10 14 13 12 11 10 9 10 11 10 9 9 8 7 7 7 7 7 6 5 6 7 6 7 6 6 4 4 3 4 4 2 1 1 1 1 2 2 3 3 2 2 2 2 3 3 3 4 5 5 4 5 5 6 6 7 7 7 6 7 8 7 8 8 8 8 8 8 7 7 7 7 6 5 5 6 8 11 15 17 17 18 19 19
14 13 12 12 13 12 11 10 11 12 9 10 9 8 8 7 7 7 7 5 7 6 6 6 6 7 6 5 4 4 4 4 3 1 1 2 2 2 2 3 3 2 2 2 2 3 3 3 3 4 5 5 5 6 5 6 6 8 8 7 8 8 8 8 9 9 8 8 7 7 6 6 6 7 6 6 6 6 9 11 13 16 17 18 19
13 13 14 13 13 13 12 13 13 13 10 10 9 8 8 7 7 7 7 5 6 6 7 6 6 6 7 6 5 4 4 4 3 2 1 2 2 2 2 3 3 2 1 1 2 3 3 4 3 3 3 6 6 6 6 5 7 7 8 9 9 9 9 8 8 9 8 8 8 7 6 6 6 6 6 6 6 5 6 9 11 13 14 16 18
13 13 14 15 15 13 11 12 10 11 9 10 9 8 8 7 6 7 6 5 5 5 6 6 6 6 6 6 5 5 5 4 3 2 2 2 2 2 2 2 2 2 1 1 2 2 3 3 4 2 4 5 6 6 8 7 6 7 8 9 10 9 9 9 9 9 8 8 7 7 7 7 6 6 6 6 6 6 6 7 10 11 11 11 15
10 12 13 12 11 11 10 11 11 11 9 9 8 8 8 6 6 6 6 5 4 6 6 6 6 6 6 6 5 5 6 5 4 3 2 2 2 2 2 2 2 1 1 1 2 3 3 3 4 6 4 4 5 6 7 7 8 8 9 11 10 10 9 9 9 9 8 7 7 7 6 7 6 6 6 6 6 6 5 5 5 4 5 9 13
10 11 12 12 11 11 9 9 10 11 9 9 8 8 7 8 8 6 6 5 5 5 6 6 6 7 6 6 5 4 6 5 4 3 3 2 2 3 3 1 0 0 0 0 2 2 3 3 4 4 6 6 4 6 6 6 7 9 11 10 8 10 10 11 11 10 8 8 8 7 7 7 7 7 6 6 6 5 4 4 5 6 5 6 11
10 11 13 12 13 14 13 13 11 12 11 11 10 10 10 8 6 8 8 7 7 5 6 5 6 6 7 6 5 4 6 5 4 4 4 4 3 3 2 1 2 2 1 1 1 1 2 3 4 3 4 6 6 4 4 5 8 9 6 8 10 9 12 12 12 9 8 8 8 7 7 6 5 5 5 5 5 4 4 6 7 6 6 5 7
10 11 14 14 13 14 14 13 11 12 12 12 11 10 10 11 10 9 8 8 8 8 7 6 7 6 7 5 6 4 6 5 5 4 4 3 3 3 2 2 1 0 1 0 1 2 3 3 3 3 1 3 6 5 7 7 4 5 12 13 10 6 8 9 9 5 4 4 4 5 6 6 8 8 7 8 8 7 6 6 4 5 6 6 5
12 14 12 12 13 13 13 13 12 12 11 12 11 11 9 7 8 7 9 6 4 5 6 5 5 6 6 5 5 5 6 5 4 4 4 4 4 3 3 2 1 1 1 1 1 2 2 3 3 3 5 2 4 4 7 3 6 6 8 8 6 13 6 5 2 3 12 12 11 9 8 7 9 7 7 7 6 5 4 5 7 8 8 6 5
9 9 11 14 12 13 13 14 13 12 11 11 11 9 9 7 7 8 7 7 6 5 5 6 6 7 6 5 5 6 6 6 6 5 4 4 4 4 3 2 1 1 1 1 2 3 3 3 3 3 1 5 3 3 3 4 3 7 7 2 10 5 9 0 7 11 12 13 8 8 5 6 5 6 7 8 8 8 7 5 7 7 4 5 7
12 13 13 14 12 15 15 15 13 13 11 11 12 10 9 8 8 8 8 8 6 6 7 6 6 6 6 6 7 6 6 6 6 6 5 5 4 4 3 3 2 1 0 1 3 4 4 3 2 2 3 4 6 3 3 3 5 3 3 6 5 3 2 11 15 12 5 1 4 6 5 10 9 9 6 6 6 6 6 7 6 6 7 8 8
13 13 13 13 11 13 13 13 11 11 11 12 13 11 11 12 11 11 10 7 8 9 10 12 10 9 8 6 7 7 6 6 6 5 5 4 4 3 3 3 2 2 3 4 3 3 3 3 3 4 4 4 4 4 5 3 4 4 4 6 6 6 10 8 4 11 7 9 12 6 7 3 3 6 6 8 8 7 6 8 6 6 5 8 9
12 9 9 11 11 12 12 13 12 11 11 12 13 11 11 11 14 14 13 13 13 8 6 6 8 7 7 8 8 7 7 7 6 5 5 5 4 4 4 3 2 2 2 3 3 3 3 3 3 4 4 3 2 4 5 5 4 4 5 6 7 7 7 8 7 10 19 8 6 2 2 2 4 6 7 7 7 6 5 5 7 9 10 8 5
10 9 9 9 12 12 12 13 10 11 10 12 12 13 13 12 12 10 10 10 11 10 11 9 9 8 9 9 8 8 7 7 7 6 6 5 5 4 4 3 3 2 3 4 4 3 3 3 3 3 3 3 3 5 5 4 4 4 3 6 6 5 4 5 5 7 11 15 24 3 6 6 5 4 5 8 8 9 11 9 9 7 5 7 9
9 12 12 11 9 9 10 10 11 11 11 13 13 12 12 13 12 11 10 8 8 8 8 7 9 9 10 8 8 8 8 7 7 7 6 6 5 5 4 4 3 3 3 4 3 3 3 3 4 4 4 4 3 3 3 5 4 6 4 4 4 5 4 4 4 6 6 12 19 18 17 6 6 8 10 6 7 8 9 10 9 10 11 10 10
9 8 7 8 9 9 11 12 12 11 11 12 12 12 11 11 11 11 12 9 8 7 9 9 8 8 9 9 7 8 8 7 7 6 6 6 6 5 4 4 4 3 3 3 3 3 3 4 4 4 4 5 4 4 5 5 4 4 3 4 4 4 4 3 4 5 6 7 12 20 17 19 22 9 3 10 11 9 9 10 10 9 9 9 9
8 9 10 11 10 12 12 13 12 10 10 13 13 13 11 10 12 12 13 12 11 11 10 9 8 8 9 9 8 7 7 7 7 7 7 6 6 5 5 4 4 3 3 3 3 3 4 4 5 4 3 4 3 4 5 5 4 5 5 6 6 6 6 6 6 5 6 7 10 15 15 15 17 22 14 5 9 9 10 9 10 10 9 11 11
Wind_Direction
130 110 80 64 59 55 55 54 53 53 56 61 57 55 53 56 59 61 63 69 69 74 70 75 77 72 70 67 63 62 61 61 58 58 58 50 43 38 36 34 28 25 23 28 28 28 21 19 24 9 351 354 7 353 350 356 2 2 358 357 355 355 358 0 1 358 351 350 345 341 330 319 312 305 287 274 272 287 305 291 289 282 279 252 263
130 87 88 69 70 66 61 58 57 57 60 58 64 64 62 63 63 62 56 53 64 64 64 66 64 70 61 64 61 55 59 56 57 57 54 56 50 45 43 42 35 25 22 19 18 23 22 23 19 19 10 10 359 354 345 345 346 346 349 352 351 350 350 351 351 352 347 342 335 328 316 308 301 293 284 253 252 264 110 250 252 241 278 299 350
111 99 88 72 73 73 65 60 60 59 61 64 66 64 60 59 65 67 71 70 67 67 71 65 67 63 62 60 62 60 59 58 55 55 55 56 50 46 43 45 40 30 26 24 22 23 24 21 24 32 26 23 9 352 351 349 346 341 341 343 348 350 348 344 346 343 344 341 333 322 316 304 293 283 274 247 235 267 128 58 223 236 255 292 306
110 107 98 80 65 71 71 68 62 67 65 64 68 68 64 63 63 67 68 64 63 62 61 63 63 67 65 66 63 60 57 57 55 54 53 53 48 45 41 39 38 30 29 30 23 18 22 25 26 31 35 27 18 14 7 357 348 345 344 345 346 346 345 344 340 341 339 339 329 320 305 295 284 290 234 316 22 24 54 43 291 245 257 286 291
112 128 122 90 70 67 82 73 74 71 72 72 70 67 67 70 68 71 68 68 68 69 70 65 63 62 64 63 62 60 57 56 54 52 52 53 50 46 42 42 40 34 29 30 33 17 24 24 27 31 35 33 30 26 18 8 6 356 350 349 348 347 344 342 343 339 336 332 324 316 290 276 286 108 148 65 38 27 45 45 251 287 293 285 289
112 99 89 91 78 56 86 90 88 85 86 84 80 80 78 80 78 75 75 75 77 77 74 69 71 69 68 67 67 65 63 59 57 55 56 56 53 49 44 42 40 37 34 35 35 35 36 27 32 33 41 37 34 30 21 13 9 5 3 358 354 351 348 341 338 339 334 326 316 302 289 266 344 105 77 85 76 54 53 11 6 338 319 313 310
64 77 82 88 80 78 86 98 97 98 92 88 88 88 88 85 86 79 80 79 80 80 78 78 76 75 74 73 70 68 65 63 61 58 55 55 54 52 47 43 41 37 34 32 35 39 38 36 38 37 40 37 31 26 25 16 8 2 1 2 359 355 349 342 338 336 333 321 299 297 301 336 28 23 122 65 80 72 27 7 353 334 316 321 326
122 97 91 82 89 88 95 96 102 101 96 93 89 86 86 87 85 83 80 78 77 76 78 77 77 76 74 73 71 69 67 65 63 62 60 57 54 52 49 43 41 39 35 33 35 36 36 34 34 35 36 35 28 27 27 21 19 16 13 8 2 355 350 345 342 339 325 307 286 286 309 341 13 30 358 336 90 78 53 18 353 334 340 342 9
126 110 106 100 90 93 98 102 103 99 98 94 93 92 91 89 88 87 85 85 81 78 78 77 75 74 73 70 68 67 66 65 63 61 59 57 54 50 49 46 41 38 36 34 35 35 35 34 34 34 35 35 30 26 22 19 17 20 19 17 16 13 9 1 355 336 318 297 297 301 325 344 360 12 333 309 298 56 44 31 3 343 334 332 334
99 75 84 90 90 103 100 102 105 106 105 103 101 99 98 94 92 90 88 85 82 82 80 79 76 75 74 72 70 68 67 65 64 62 61 58 56 52 48 46 42 39 35 34 34 33 33 32 31 31 29 30 29 27 23 18 14 14 14 13 10 8 5 358 344 331 312 304 316 329 330 335 334 313 21 27 29 46 42 36 1 335 313 313 314
114 102 92 82 85 102 111 109 109 109 107 107 104 103 101 100 97 94 91 86 85 82 79 77 76 74 72 69 67 66 65 64 63 62 59 57 54 51 49 46 42 39 36 32 29 29 30 30 28 26 26 24 21 19 19 20 19 16 13 11 10 7 4 353 341 322 316 314 311 309 318 331 324 327 42 331 28 24 45 28 344 311 322 327 328
102 101 101 99 80 100 107 113 115 112 111 108 109 106 103 101 100 98 94 90 88 84 81 78 77 74 72 70 68 66 64 63 62 61 58 56 52 50 48 44 41 39 37 32 26 24 23 22 21 21 20 19 16 10 8 9 12 14 12 10 8 3 1 348 335 322 309 302 305 304 321 329 330 318 338 2 6 4 17 352 337 329 327 327 327
116 113 116 107 80 89 110 110 109 108 108 107 107 106 105 102 100 98 94 93 90 87 85 83 80 78 75 73 72 68 66 64 63 61 58 55 52 49 46 42 39 37 34 32 28 24 21 20 19 15 13 10 7 3 0 358 360 2 3 2 2 359 356 348 343 328 316 312 308 304 300 322 315 314 2 357 352 351 349 349 338 330 327 326 324
118 117 116 108 106 90 94 103 103 103 102 101 100 101 101 101 100 96 96 93 91 88 87 85 83 82 80 78 76 73 70 67 64 59 55 52 50 48 45 42 39 36 34 31 28 24 22 20 18 15 11 6 2 359 355 352 350 352 352 352 351 351 351 342 336 318 315 314 315 314 304 287 284 281 324 334 330 338 350 347 340 334 327 323 322
122 116 115 125 121 106 91 91 94 93 93 95 96 97 97 96 94 93 93 91 90 88 87 85 83 81 79 77 74 71 69 68 64 61 57 52 48 44 42 40 36 34 32 30 27 23 21 17 15 11 6 1 358 355 352 348 347 347 348 345 343 340 338 328 318 305 304 303 298 300 306 303 294 308 328 334 334 335 336 336 334 329 326 324 325
111 126 135 130 133 146 114 93 89 89 91 92 93 93 94 94 93 92 90 88 87 86 83 83 81 80 78 75 72 68 66 64 60 58 54 51 46 43 41 39 36 31 28 25 24 21 17 16 12 8 2 358 353 350 348 347 346 347 345 342 338 331 323 318 300 295 283 279 277 281 296 309 318 327 342 329 325 327 331 331 330 328 324 322 319
137 140 132 146 156 142 138 120 112 101 93 92 94 95 96 94 92 92 89 88 85 83 80 77 74 74 72 70 66 64 61 57 56 53 50 45 41 37 34 35 32 29 27 24 22 20 15 11 7 3 0 357 353 350 348 347 347 345 343 340 332 325 318 317 294 278 275 271 269 275 277 277 277 291 307 315 315 319 325 328 328 326 325 321 318
143 145 142 154 151 148 130 138 138 127 119 94 90 99 99 98 99 97 95 91 87 81 76 71 66 64 64 64 61 58 54 51 49 48 44 37 32 28 26 27 24 21 18 17 17 16 12 10 7 3 1 357 354 352 352 349 346 342 339 334 327 321 316 315 297 280 277 275 279 273 287 300 4 350 332 325 316 311 314 316 318 318 317 314 311
167 161 156 157 158 133 146 156 161 147 138 118 103 98 109 111 110 107 105 100 94 90 87 82 80 81 86 91 96 94 78 73 64 60 58 50 40 29 28 28 27 22 15 14 14 11 8 6 4 2 1 360 357 356 351 350 352 346 340 327 317 315 316 316 303 286 298 338 340 344 333 341 352 344 335 324 314 308 306 310 312 312 312 313 312
180 179 154 170 153 143 140 144 140 148 130 122 123 118 116 116 114 110 108 106 105 104 105 109 112 123 142 171 153 140 120 96 88 99 82 72 59 42 36 36 35 25 20 19 17 15 8 6 4 1 359 354 353 348 340 357 351 347 343 331 319 317 323 311 329 347 350 343 337 326 322 324 341 338 332 328 326 321 313 308 307 309 311 308 305
177 187 167 170 156 149 151 147 152 137 124 127 129 128 134 123 117 118 117 116 116 122 125 146 160 147 191 189 208 153 105 95 88 54 109 134 98 63 38 37 37 25 21 23 24 17 12 12 10 4 359 1 355 341 336 355 350 346 344 335 332 329 320 352 346 334 325 314 312 302 300 325 332 327 324 321 321 316 310 310 310 306 303 302 302
175 186 188 170 162 161 162 148 140 137 132 126 135 146 168 165 152 155 146 131 139 133 100 93 78 31 348 67 88 41 101 97 94 72 115 94 108 86 39 36 36 26 20 23 20 14 12 13 11 8 7 8 359 351 350 346 342 342 343 338 340 347 350 338 332 324 320 316 318 319 327 329 326 322 316 313 310 307 305 303 304 305 302 298 295
180 185 192 174 172 162 170 147 148 146 137 141 152 163 175 148 136 127 132 134 113 85 97 85 78 47 339 68 74 26 77 111 99 357 262 232 97 47 33 35 28 29 20 24 18 12 11 11 10 8 5 1 357 344 346 342 338 338 344 339 346 345 337 332 327 325 319 322 327 325 326 325 322 319 314 310 306 303 302 300 299 299 299 301 301
182 184 179 173 170 166 176 155 154 151 143 157 166 169 167 152 160 165 156 139 129 119 94 90 87 66 8 70 75 318 47 82 142 17 63 55 36 29 30 37 19 29 15 18 17 4 3 2 5 3 359 350 345 340 341 336 332 330 333 338 337 332 329 325 326 324 321 318 315 313 325 326 321 317 313 309 306 302 301 299 298 297 295 293 291
174 167 167 180 177 165 175 154 151 154 162 162 175 172 165 164 153 160 145 135 141 134 128 118 123 94 43 111 165 205 89 90 55 32 41 59 44 30 29 35 17 32 13 17 16 357 355 357 360 355 357 350 345 338 338 331 326 329 330 324 326 320 323 330 321 317 317 317 318 322 323 318 313 311 308 306 305 304 302 300 298 297 295 292 289
162 175 179 175 179 168 170 155 153 169 173 162 175 162 159 151 148 153 137 124 132 137 145 143 123 80 105 295 172 110 85 83 68 48 43 59 53 32 25 40 15 32 21 13 16 5 353 352 357 352 349 348 340 337 332 327 329 326 320 319 320 323 320 315 316 313 315 319 315 313 313 313 311 309 308 307 305 303 301 299 298 296 296 294 291
179 182 168 174 174 169 165 156 161 169 174 165 157 142 170 154 149 150 145 134 141 152 126 100 100 130 195 65 77 79 82 68 58 45 60 58 61 35 24 41 13 31 17 18 19 4 356 351 350 348 349 343 338 336 332 340 332 324 320 321 319 314 309 304 302 303 299 297 301 306 307 307 311 311 310 308 305 302 301 299 298 296 294 293 292
173 176 171 171 175 172 163 159 165 165 176 167 141 155 180 146 142 136 146 151 152 149 124 118 137 109 59 35 34 91 90 80 43 45 55 48 59 35 31 37 17 31 25 16 23 6 353 350 341 348 347 339 335 331 332 331 327 328 328 325 321 318 313 306 299 296 295 292 291 293 299 305 308 307 307 308 307 306 304 302 300 299 297 295 294
181 180 170 169 177 169 164 167 165 167 169 158 154 163 160 133 126 154 142 144 141 131 125 145 139 115 102 65 42 68 74 91 61 53 71 55 68 46 41 42 19 37 33 14 24 9 350 344 336 344 338 332 329 323 320 325 322 326 325 318 317 317 317 313 307 304 303 297 294 289 292 294 299 304 305 305 306 306 306 305 304 302 300 298 296
185 175 171 175 172 167 168 171 167 165 163 159 167 157 151 140 150 162 136 154 141 121 142 162 135 127 112 88 56 81 81 90 75 34 79 53 72 48 43 38 27 40 41 21 16 10 339 330 331 329 328 323 321 307 315 318 323 320 316 311 311 309 309 308 306 304 298 299 294 291 293 294 295 299 301 302 304 305 305 305 305 304 302 301 299
168 180 176 170 170 166 171 170 163 161 159 163 167 153 147 148 159 137 144 157 128 136 168 133 116 109 112 117 101 80 103 77 77 46 50 52 69 56 35 57 31 48 47 22 4 344 323 315 313 314 318 312 299 300 315 314 316 318 310 310 306 306 306 305 304 303 303 299 297 293 291 292 293 293 297 301 303 304 305 307 308 308 306 304 302
175 181 176 161 165 172 167 172 163 159 157 163 159 150 156 152 151 137 156 150 143 166 154 136 120 111 126 132 112 99 110 119 112 96 59 81 87 90 81 77 60 63 44 11 332 317 314 312 313 317 311 304 309 316 309 320 320 312 308 302 300 304 298 293 293 294 291 292 292 291 289 286 288 290 290 297 302 305 307 308 308 309 308 307 305
183 172 167 162 171 170 168 174 161 157 160 161 159 154 154 149 150 153 149 145 160 156 146 144 128 131 134 127 130 150 129 123 125 142 188 137 120 127 105 85 87 73 42 333 331 340 345 327 311 323 328 328 321 318 328 324 317 308 307 301 302 298 293 293 294 296 290 285 284 283 281 282 281 284 288 291 299 304 307 308 309 309 309 309 309
174 170 162 173 169 166 167 167 162 159 162 156 155 149 148 145 149 142 139 148 167 154 155 142 133 136 135 137 140 125 117 114 120 135 128 104 126 127 103 89 78 68 21 355 16 338 312 309 314 344 328 325 323 324 326 317 305 303 300 296 296 293 295 294 292 289 289 285 281 280 280 280 280 283 285 291 298 304 310 309 308 307 307 308 308
163 172 176 170 164 167 167 170 161 161 163 154 155 151 144 149 154 140 147 164 165 156 147 140 140 141 140 157 142 136 105 112 110 117 134 119 94 88 85 95 87 80 42 16 349 318 309 318 341 337 320 324 318 314 314 305 305 303 298 301 296 292 289 286 286 285 282 281 279 279 282 283 285 289 290 289 293 299 296 295 300 305 308 310 308
179 176 166 163 168 169 170 162 158 163 167 153 153 148 149 151 152 144 149 172 159 152 152 146 151 146 147 150 143 134 121 120 119 105 115 96 119 112 108 86 88 67 45 356 359 330 326 335 339 331 327 322 323 310 306 302 307 304 302 297 291 286 284 284 283 281 278 280 279 282 284 283 285 286 280 280 279 276 273 280 294 304 307 308 307
176 169 169 167 167 169 168 161 163 164 164 149 146 145 147 150 151 147 154 159 155 151 150 148 147 145 142 148 155 150 130 122 122 128 160 161 124 111 96 92 81 73 23 358 349 331 340 325 314 314 340 317 315 303 303 304 302 296 294 291 287 287 284 284 281 277 279 276 282 283 278 276 273 272 276 276 277 273 275 280 286 291 293 296 301
178 172 168 168 169 167 166 163 157 159 156 149 147 144 144 142 136 138 143 156 157 151 147 142 148 155 149 144 152 149 133 131 138 161 136 135 153 145 122 104 88 73 48 3 309 309 312 309 312 328 345 315 302 306 304 300 296 295 291 287 287 283 281 281 276 275 272 275 275 273 268 269 269 269 273 275 273 269 272 269 274 279 281 283 293
172 168 164 163 157 160 157 160 155 156 149 145 140 137 136 127 123 127 143 162 159 154 143 149 161 153 147 139 145 148 132 136 156 156 165 136 118 111 100 93 91 85 66 359 319 313 315 339 355 322 311 288 291 293 291 295 298 296 293 290 287 283 281 273 272 270 266 264 264 262 269 268 264 265 264 265 259 265 264 265 270 273 267 271 285
163 162 163 160 155 156 155 158 158 154 146 145 146 143 142 148 145 140 150 164 169 153 151 161 158 152 142 141 153 153 138 146 154 153 133 140 122 103 91 85 156 127 116 329 322 325 327 339 318 312 306 299 281 280 288 300 299 295 292 287 282 290 286 281 278 273 272 270 264 263 263 263 265 266 267 265 267 267 270 281 290 275 267 271 280
165 161 163 166 160 166 161 168 164 161 158 160 162 160 158 155 150 167 171 169 169 158 160 167 161 155 146 150 154 152 135 138 150 155 171 145 144 141 145 158 165 170 175 223 231 324 330 306 289 280 291 303 303 299 303 318 310 297 279 287 294 281 273 273 271 270 270 266 262 268 266 268 264 272 273 279 285 285 290 296 284 275 278 282 276
173 163 169 171 164 166 168 166 167 168 170 169 165 169 172 173 166 173 163 169 165 166 171 175 167 151 151 152 149 156 138 150 162 164 152 146 142 139 145 154 124 155 197 269 318 278 279 269 255 292 251 299 300 320 310 328 309 320 327 321 310 277 252 259 258 258 260 256 279 282 284 293 292 293 291 291 285 281 284 281 290 303 302 291 281
172 171 169 166 165 169 172 171 173 171 172 169 168 170 169 163 161 162 160 159 155 151 156 163 152 142 154 152 159 149 146 160 156 155 152 160 155 143 159 155 138 112 36 329 285 277 263 273 274 274 308 292 281 297 290 299 292 320 300 291 312 330 337 299 324 8 328 308 298 292 288 285 284 280 279 280 278 285 297 305 301 296 288 286 308
166 168 169 171 168 175 175 174 176 174 172 171 168 164 161 156 150 152 148 145 152 143 131 138 138 142 162 162 167 153 157 166 163 160 158 161 162 163 147 119 128 129 151 262 275 266 264 275 280 272 269 302 302 288 295 317 310 329 329 359 305 317 320 321 337 300 277 276 270 270 269 276 290 293 299 294 291 290 287 287 284 279 287 307 311
178 178 174 177 178 179 178 176 176 175 172 167 165 156 136 116 106 91 96 95 96 119 126 146 164 166 160 168 177 162 164 163 161 164 165 165 160 154 140 141 125 127 125 249 262 252 247 244 254 280 265 249 277 276 293 315 296 253 236 326 330 324 274 316 328 300 200 356 256 269 273 285 280 280 284 279 284 287 291 285 282 288 295 297 294
185 186 179 179 173 178 174 174 172 173 173 169 165 156 154 149 145 143 148 149 160 167 177 177 178 179 184 164 166 165 160 159 162 165 163 156 154 148 139 135 153 172 192 217 235 259 270 266 256 241 253 237 245 281 288 304 280 268 240 213 215 262 310 311 343 306 282 243 266 218 265 238 268 294 289 285 285 284 279 280 279 283 288 287 281
192 177 176 180 177 175 174 174 174 174 173 171 166 157 159 165 169 170 169 172 171 190 177 169 168 171 163 163 161 159 160 161 165 163 163 158 152 147 146 151 154 173 214 224 246 250 248 250 258 257 247 253 280 282 282 291 306 280 263 254 255 268 281 309 301 313 315 316 177 314 252 276 287 283 277 274 284 288 289 288 291 288 282 274 278
176 174 179 180 180 179 174 174 173 175 175 171 169 169 167 171 172 175 173 177 179 173 176 175 165 158 159 155 154 161 165 164 165 167 163 158 153 151 151 151 158 192 207 221 223 234 248 271 264 256 267 259 252 259 275 271 276 286 297 299 296 288 286 280 269 274 294 306 307 271 212 260 282 246 281 298 293 292 291 288 283 281 286 291 295
177 184 186 182 177 175 173 172 174 176 175 174 171 176 176 176 176 174 177 184 172 167 162 152 146 148 145 154 157 165 166 168 167 163 162 158 156 158 153 153 166 198 204 221 229 227 235 245 266 279 271 273 248 250 271 279 280 279 311 296 304 289 297 285 293 294 278 302 290 300 310 283 245 267 288 275 288 293 290 290 288 289 287 286 283
182 178 177 173 179 176 177 177 178 179 173 176 174 179 179 174 180 182 178 174 165 152 149 151 150 150 153 162 164 163 165 165 166 163 158 159 157 154 152 162 179 195 206 220 230 243 251 252 251 255 256 257 250 253 255 264 260 274 270 287 288 303 304 289 271 262 275 239 272 300 309 314 314 295 237 293 288 282 282 282 282 279 281 284 285
179 175 181 183 181 184 181 183 181 174 172 177 175 182 181 182 184 182 179 172 165 156 152 159 155 156 164 168 169 171 168 167 163 167 163 162 162 156 157 169 177 186 198 209 229 229 237 240 240 242 249 249 258 256 265 263 263 260 260 248 245 242 240 259 264 269 271 279 294 286 294 300 295 301 302 270 277 284 283 280 280 280 281 284 283